CZ-2C DEB

Satellite information

Favourite Embed

Satellite Type and Status

DEBRISIN ORBIT

Key statistics

Satellite CZ-2C DEB at a glance.

Uptime

5092

Days in orbit

Revolutions

≈ 14.4

Per day

Orbit

SSO

Sun Synchronous Orbit

Inclination

98.3

Latest

Satellite identification and parameters

Extended collection of information and parameters for CZ-2C DEB.

Object identification

Identified? True

Debris? True

Object name: CZ-2C DEB

International designator: 2011-039D

Object number (NORAD): 37768

Object ID (CCSDS): 37768

Country: PEOPLES REPUBLIC OF CHINA (PRC)

Current information (Y/N): Y

RCS size: SMALL

Orbital parameters

Period: 99.853 minutes

Inclination: 98.3248 deg

SMA: 7129.653 km

Apoapsis: 840.734 km

Periapsis: 662.301 km

RAAN: 139.2261 deg

Eccentricy: 0.0125134

Argument of periapsis: 200.9726 deg

Mean anomaly: 283.0827 deg

Mean motion: 14.42116044 rev/day

Mean motion (dot): 0.00001328 rev/day2

B* drag term: 0.00038067 1/REarth

Two-line elements (TLE)

Creation date: July 6, 2025, 6:05 p.m.

Reference frame: TEME

Reference center: EARTH

Epoch: July 6, 2025, 10:51 a.m. UTC

TLE line 0: 0 CZ-2C DEB

TLE line 1: 1 37768U 11039D 25187.45226767 .00001328 00000-0 38067-3 0 9998

TLE line 2: 2 37768 98.3248 139.2261 0125134 200.9726 283.0827 14.42116044727398

Live tracking on map

Real-time ground track for satellite CZ-2C DEB.

In-orbit conjunctions

A list of the most updated potential collisions computed for object CZ-2C DEB.

Target Orbit TCA Probability of collision Miss distance Type
SINAH 1 SSO 2024-11-14 12:32:12 0.0005501928 507.0 (m) PAYLOAD

Associated space launch

CZ-2C DEB was lifted into orbit during the mission ‘Long March 2C | Shijian 10-02’, on board a Long March 2 space rocket.

The launch took place on July 29, 2011, 7:42 a.m. from Launch Area 4 (SLS-2 / 603).

For more information about the launch, click the button.

Launch to space Long March 2C | Shijian 10-02
Long March 2C | Shijian 10-02

Agency: N/A

Status: Launch Successful

Launch date: July 29, 2011, 7:42 a.m. UTC

Rocket: Long March 2

Launch pad: Launch Area 4 (SLS-2 / 603)

Location: Jiuquan Satellite Launch Center, People's Republic of China

...

Latest news about this satellite

There are no fresh news available about this satellite. Check back as we update our databases every day.


Newsletter sign-up

Weekly statistics, charts and insights to help you stay on top of the space industry.